星链-1494 (STARLINK-1494 )

导读

STARLINK-1494是美国太空探索技术公司Starlink卫星互联网项目的一员,于2020年6月13日发射升空。它属于低轨通信卫星,旨在为全球用户提供高速宽带互联网服务,尤其覆盖偏远与网络基础设施匮乏地区,是SpaceX构建巨型低轨卫星星座进程中,重要的组网单元。

基本信息
目录编号:
45760
目录名称:
STARLINK-1494
国际标识:
2020-038AG
轨道中心:
EARTH
卫星名称:
星链-1494
卫星全名:
星链-1494 (STARLINK-1494 )
卫星状态:
已陨落 最后检测时间 2026-06-15
发射日期:
2020-06-13 UTC
国别 :
美国 (US)
星等 :
--
该卫星已列入 空间交会检测服务 Space Conjunction Data Service (SCDS) ,当前飞行风险评估等级: 无高风险
轨道信息
数据来源 国际轨道数据
星历时间: 2026-06-15T04:04:44+0800
轨道信息已过期91天
半长轴: 6557.402km
偏心率: 0.0010956
轨道倾角: 53.026°
近地点辐角 260.827°
升交点赤经 17.231°
平近点角 99.154°
近地点: 172.08km
远地点: 186.45km
周期: 88.076分钟
每日圈数: 16.349524
详细信息
固有亮度:
5
最大亮度:
2.5
卫星平台:
Starlink V1.0
覆盖范围:
全球
运营商:
太空探索技术公司
运营商所在国:
美国
制造商(研发单位):
太空探索技术公司
制造商所在国:
美国
使用方式:
暂无
卫星简介
星链(Starlink)计划是由太空探索技术公司(SpaceX)提出的一个巨型低轨卫星互联网星座项目,计划在2019年至2024年间在太空搭建由约1.2万颗卫星组成的“星链”网络,其中1584颗将部署在地球上空550千米处的近地轨道,并从2020年开始工作。该卫星仍在工作。
与全量物体交会距离演化趋势
与全量物体交会风险概率演化趋势